RH
95 95 96 96 95 92 93 94 94 95 95 94 93 89 88 81 78 80 90 68 63 89 83 70 68 66 54 61 61 62 74 79 69 64 51 42 41 34 32 35 32 32 37 37 57
99 99 97 95 94 91 92 91 95 94 96 93 92 90 84 83 87 95 64 63 81 92 77 67 71 57 63 65 64 67 81 72 60 56 49 44 41 35 34 34 34 35 41 49 52
99 99 97 99 97 94 90 90 89 92 94 96 95 88 89 88 95 77 64 82 85 90 68 62 61 56 69 69 68 71 78 68 58 46 44 46 44 38 37 40 34 35 44 45 46
92 96 99 99 98 96 95 91 90 95 92 95 95 87 88 88 51 56 84 85 91 87 70 60 60 67 76 80 69 75 69 62 49 48 47 48 43 43 39 37 31 32 42 41 41
83 84 85 96 99 99 97 96 92 96 96 95 95 89 92 93 88 55 85 86 87 83 64 63 65 71 78 75 71 73 62 62 51 48 44 44 44 43 43 32 34 35 43 41 38
85 76 82 82 95 97 98 96 97 91 89 93 96 93 93 94 49 60 89 90 81 73 60 59 61 61 68 70 71 66 64 55 54 53 48 49 48 44 43 38 37 37 42 40 37
93 84 76 82 83 93 91 97 98 98 90 93 95 97 94 79 54 54 92 87 71 67 50 50 50 57 60 61 58 61 70 49 57 55 51 48 56 54 43 38 38 35 36 38 36
89 93 91 86 84 83 92 86 79 90 94 94 97 98 87 63 64 64 76 62 60 49 46 39 42 45 48 42 42 53 59 76 57 59 52 52 68 41 45 39 42 36 34 36 34
76 76 88 90 85 91 91 93 79 76 94 96 93 91 84 64 71 67 62 40 42 41 36 38 37 45 39 53 62 56 85 78 67 60 47 59 68 40 40 43 42 44 36 36 34
86 88 95 91 89 72 92 94 80 77 81 88 90 92 78 73 55 63 54 37 38 40 39 42 47 54 50 58 84 76 73 54 74 52 51 57 58 44 32 43 44 43 44 39 35
91 91 84 72 88 82 83 81 87 89 91 87 80 78 59 54 51 49 40 37 39 45 60 51 65 78 65 58 42 54 65 60 42 40 54 59 56 48 44 40 42 44 47 45 37
89 90 69 73 74 77 84 93 79 71 91 77 81 78 68 58 54 53 36 44 48 59 56 62 74 64 63 51 46 44 44 40 33 42 55 56 52 46 41 37 36 38 44 44 41
86 87 80 85 75 73 81 85 76 75 87 72 71 84 74 68 78 60 42 48 54 62 59 67 55 53 61 61 58 52 52 40 34 33 48 41 41 38 36 38 38 37 36 38 41
88 87 87 89 79 77 90 78 79 86 98 68 82 68 69 66 80 47 41 44 54 59 59 57 46 56 61 66 62 79 40 35 34 35 43 37 47 33 33 34 40 38 39 36 40
85 88 91 93 84 86 77 77 99 84 96 48 60 48 54 62 59 65 42 43 60 61 55 56 58 52 62 56 56 67 44 40 37 40 38 40 43 33 32 32 30 37 41 38 38
85 90 93 91 82 78 77 70 96 98 95 59 65 77 85 68 52 55 53 40 46 58 50 46 42 44 42 44 48 41 41 45 49 43 65 45 38 34 30 28 28 32 35 40 33
91 94 93 83 84 75 77 93 98 96 44 63 74 77 81 84 63 64 67 58 60 69 70 46 41 35 37 45 38 37 42 75 73 76 75 48 47 29 28 27 26 29 32 39 34
94 90 80 81 72 73 95 100 96 88 62 52 66 84 83 73 62 66 75 74 55 53 67 64 66 42 36 43 44 44 47 72 70 75 56 50 49 32 30 29 26 30 33 40 40
92 79 86 66 69 85 99 97 94 88 85 72 76 94 97 70 66 67 83 73 60 52 62 74 58 38 36 36 33 42 52 46 67 65 68 54 44 33 33 28 32 36 42 43 43
87 95 87 76 80 90 100 92 95 83 69 86 75 73 96 94 88 80 86 65 65 49 47 53 68 42 38 33 36 40 43 53 79 72 68 52 50 34 30 34 35 39 42 45 47
87 94 71 80 90 96 98 94 92 80 73 97 91 79 79 93 85 87 80 66 58 59 47 53 61 52 41 46 49 50 50 66 67 72 62 51 35 38 35 31 32 37 42 46 46
85 96 83 92 96 100 95 91 69 81 80 81 98 94 76 89 97 96 90 73 62 54 58 75 86 69 56 49 46 45 62 64 71 68 84 67 42 33 33 33 36 39 43 46 44
99 96 85 78 95 98 92 91 76 89 84 97 95 86 81 90 94 88 87 72 85 71 88 89 97 91 64 56 54 52 59 72 80 76 82 56 38 34 30 34 40 43 46 46 44
98 98 94 98 100 99 97 92 94 83 84 82 89 72 83 98 89 96 92 78 84 86 75 79 95 82 71 69 75 67 82 63 62 66 66 61 38 29 27 31 44 45 45 44 42
97 91 75 97 96 98 98 96 93 88 83 83 86 84 86 98 99 98 84 92 91 80 93 99 96 82 68 58 61 66 66 74 62 49 46 38 46 33 30 32 40 44 46 44 42
95 97 100 99 82 95 97 98 83 75 86 84 94 80 96 96 80 87 91 94 90 100 100 100 96 70 66 60 56 52 56 56 48 55 48 45 44 35 33 33 40 44 45 42 41
97 94 100 89 91 98 97 97 97 80 74 70 85 90 100 89 95 89 81 83 96 94 99 98 97 81 95 71 64 74 58 56 49 52 48 51 36 47 37 33 36 42 43 40 38
Wind_Speed
17 17 17 16 16 16 16 16 15 15 15 15 13 13 9 9 8 7 8 10 11 10 8 9 6 6 4 2 2 2 2 4 5 7 3 4 3 2 2 7 1 1 4 1 27
19 18 19 18 18 17 17 16 16 16 15 15 14 13 9 9 10 10 15 8 13 7 9 10 5 6 2 3 2 3 3 8 4 4 3 5 3 8 5 5 2 1 5 20 25
22 21 19 20 19 18 17 16 17 15 15 15 14 11 10 8 4 6 4 15 15 11 7 8 8 4 3 3 4 4 4 4 3 3 3 4 3 3 8 5 7 10 13 19 24
23 23 23 22 21 20 17 16 16 15 14 14 14 9 9 4 4 1 4 17 13 12 9 7 4 6 4 5 4 3 5 3 1 2 3 5 5 3 6 2 2 9 21 18 20
21 23 23 23 22 21 21 18 17 15 14 13 13 7 5 2 8 2 11 17 14 11 10 5 5 5 6 5 4 4 3 4 2 3 1 4 4 3 5 2 4 14 18 20 18
21 21 22 22 22 21 21 20 17 14 14 13 12 7 3 6 4 5 15 16 14 13 9 6 6 5 4 3 7 3 6 2 2 3 2 3 2 3 2 7 9 16 18 17 19
23 23 23 21 21 22 22 21 19 16 15 13 12 8 6 13 2 6 16 18 15 16 5 9 4 5 5 4 3 3 3 1 4 5 3 3 7 9 4 10 12 15 15 14 16
26 25 25 23 22 21 22 22 22 19 16 14 11 8 7 9 12 14 14 12 13 11 10 8 9 3 2 3 4 4 3 2 1 8 4 5 9 2 9 13 14 14 13 14 15
28 30 27 25 25 23 21 20 22 20 15 9 5 5 6 4 7 17 18 9 12 10 7 9 5 4 2 5 2 2 3 5 5 8 4 6 5 2 4 10 13 14 14 15 12
27 27 27 25 27 26 21 20 21 17 9 6 5 2 6 4 5 11 19 13 4 6 3 3 3 4 2 7 7 7 4 3 4 3 4 8 12 5 1 7 12 13 13 15 15
27 27 28 29 25 24 20 8 2 3 6 9 7 4 2 2 5 6 16 9 4 4 6 3 7 13 18 9 2 5 4 4 3 3 5 13 12 14 8 5 8 10 13 15 17
26 26 27 25 25 22 16 4 7 1 6 12 11 11 9 0 1 3 19 7 6 7 6 3 10 10 5 8 6 5 4 4 2 1 4 3 13 15 12 9 11 14 14 17 14
27 26 30 25 22 17 14 20 18 15 6 7 8 9 8 9 5 6 11 5 4 6 11 7 4 13 10 6 12 9 8 4 1 1 2 5 8 8 6 15 9 11 14 15 19
27 27 28 25 14 11 7 16 19 16 4 7 6 9 8 7 8 10 15 6 3 12 8 7 4 8 8 12 10 14 7 5 4 2 3 2 5 5 3 7 10 14 14 16 16
28 27 25 18 13 5 6 9 7 8 4 6 10 1 5 16 11 11 21 4 9 8 7 8 9 15 8 13 14 6 7 9 4 3 1 1 2 7 2 5 13 15 15 16 17
28 25 22 18 13 14 13 12 11 5 7 2 6 7 6 14 2 5 8 6 5 6 1 4 2 6 7 3 14 11 7 7 4 3 3 7 6 5 5 6 3 5 16 16 16
26 22 19 16 6 7 9 3 5 5 1 6 6 6 4 6 5 5 14 14 9 7 6 3 3 3 4 6 3 3 9 2 1 1 5 1 3 14 5 5 4 6 13 16 16
20 19 18 17 17 13 5 3 6 5 7 2 4 6 9 8 6 5 12 14 9 4 4 9 5 8 6 7 10 7 7 6 7 4 3 2 7 7 5 3 3 2 5 11 15
17 14 4 16 11 13 3 5 5 2 4 6 2 4 4 5 7 4 8 17 14 8 7 5 6 1 1 4 11 7 5 3 7 3 1 4 6 11 6 4 2 3 5 11 13
8 4 6 10 6 7 4 7 4 4 1 2 3 3 7 7 4 6 9 6 8 14 2 6 2 1 2 4 2 5 9 3 2 5 4 3 4 6 2 7 4 5 7 8 9
2 2 3 3 8 2 4 3 4 5 3 2 3 3 3 5 4 5 9 2 9 8 8 3 3 1 4 6 8 3 3 4 5 2 4 1 5 4 3 5 10 8 7 9 11
1 2 3 5 0 2 2 4 3 2 4 7 4 3 5 5 4 2 15 6 6 6 10 5 2 4 5 1 2 1 6 5 5 5 1 2 5 1 3 5 6 6 6 7 8
0 2 3 1 1 2 3 3 4 2 5 4 5 12 6 5 3 5 6 5 6 7 9 7 4 4 2 3 2 5 4 4 5 3 7 6 5 1 3 3 3 7 6 7 8
2 3 3 1 1 3 2 4 3 4 4 1 4 3 2 1 1 3 5 3 9 5 14 14 5 7 9 7 6 4 2 4 4 3 6 5 4 4 2 6 5 5 6 8 9
2 3 2 3 3 4 4 1 2 2 4 4 3 6 4 1 4 4 4 1 1 6 9 9 6 4 1 3 3 6 12 12 12 13 13 8 8 6 5 7 5 6 6 8 9
2 1 1 3 5 7 5 4 6 8 5 2 5 2 4 4 7 7 8 5 5 4 4 7 4 5 1 4 2 3 6 17 18 4 2 3 6 5 3 6 6 8 10 10 10
2 1 2 3 4 3 1 3 1 1 5 6 6 2 2 5 6 3 4 4 4 7 7 9 5 8 4 4 3 5 12 16 13 7 13 13 12 6 4 7 10 11 13 13 11
Wind_Direction
321 320 320 322 324 321 321 325 331 334 335 335 329 326 322 308 289 264 251 226 205 158 167 147 154 158 134 144 136 144 136 201 211 166 206 158 149 62 85 122 107 82 145 200 154
331 320 315 316 319 318 318 317 322 330 331 334 329 324 322 302 298 251 250 205 198 173 166 160 152 140 144 173 187 170 192 213 210 191 189 164 164 153 145 135 183 135 59 135 146
331 330 327 319 310 312 314 313 314 322 322 328 329 320 316 314 299 242 346 200 195 182 159 165 148 138 167 137 195 177 219 211 226 220 168 156 149 159 137 202 199 191 157 153 154
317 319 323 326 321 309 304 308 310 315 317 320 327 313 310 302 281 274 195 170 177 180 156 138 116 144 162 189 173 191 223 175 248 187 147 169 135 185 197 188 245 180 164 157 166
315 314 311 315 320 318 309 300 305 310 314 316 322 306 312 259 258 227 150 167 170 177 174 153 146 141 173 189 138 196 212 201 196 161 165 130 197 205 220 174 99 137 159 171 170
309 314 311 305 310 314 315 308 295 299 306 315 317 292 235 254 249 196 168 175 176 170 169 156 180 187 163 182 192 223 187 181 225 223 195 187 232 141 226 143 137 155 173 177 176
302 302 304 307 301 304 308 312 302 288 292 301 302 271 224 247 277 217 190 189 188 180 154 192 187 165 149 169 183 143 133 335 212 195 213 142 262 220 172 158 162 180 180 176 179
312 315 301 300 301 303 299 302 304 294 288 297 281 241 249 264 264 238 191 180 192 189 195 190 186 133 180 120 46 129 120 195 245 162 211 131 254 264 180 162 183 187 182 181 184
306 304 302 307 298 294 300 298 298 296 284 287 202 203 255 262 217 232 206 169 166 179 184 147 144 149 151 118 84 4 205 219 314 199 142 192 266 272 161 187 192 194 192 190 182
304 302 302 300 297 298 294 298 292 285 273 211 215 155 263 227 196 195 191 168 144 128 90 115 114 154 136 186 211 193 191 206 215 201 184 217 244 257 232 197 208 199 199 195 190
307 304 302 297 295 297 295 319 327 265 209 204 188 224 292 266 156 172 165 116 93 113 165 219 183 203 200 216 140 139 155 196 220 227 175 235 250 248 230 230 227 205 203 201 201
310 309 306 309 306 300 295 246 229 36 293 237 245 239 252 107 293 167 159 144 150 184 127 104 224 203 164 171 171 156 142 212 283 110 192 324 272 255 222 222 214 206 203 206 193
308 305 304 306 313 291 268 250 266 288 264 244 215 219 227 176 215 205 174 133 143 147 192 185 213 182 174 170 201 220 206 167 154 43 221 330 274 233 211 215 199 204 207 200 196
304 301 300 305 301 272 245 269 262 241 242 240 219 231 190 139 226 187 181 144 170 187 156 232 217 167 181 202 179 220 180 138 132 120 245 350 285 287 218 227 217 202 199 195 194
303 297 296 299 282 257 243 282 267 163 241 221 205 200 227 186 143 202 177 134 165 166 153 216 189 183 184 204 184 220 162 162 120 117 352 169 285 270 20 248 229 210 201 195 190
301 297 297 297 271 257 264 273 275 222 217 192 143 177 119 204 206 101 163 100 134 133 227 191 159 170 187 101 174 149 95 61 69 99 267 200 184 257 211 215 242 185 200 192 186
301 299 291 282 262 265 267 227 230 249 264 179 178 163 146 181 151 136 173 181 167 168 180 130 202 163 134 93 61 166 140 73 37 192 225 154 190 251 273 231 231 221 196 189 184
310 303 291 281 273 265 185 184 238 186 224 36 148 139 178 143 188 153 157 194 210 121 135 173 205 172 182 168 170 188 180 155 178 191 196 116 223 248 235 281 210 325 190 170 178
313 302 265 282 271 231 210 221 207 204 158 311 19 121 201 172 136 138 176 197 200 180 168 158 226 84 111 148 160 192 200 147 107 57 75 205 273 283 217 242 232 167 157 172 177
315 329 263 306 244 165 239 252 198 235 159 314 226 204 171 188 135 134 174 190 203 194 166 195 94 303 164 118 61 184 153 115 11 145 226 240 267 250 244 232 218 200 190 171 167
16 360 290 344 171 205 256 221 246 228 145 130 262 285 205 173 139 155 192 321 185 191 167 115 112 266 145 212 164 136 175 57 115 111 176 224 253 213 252 226 204 204 189 174 170
88 274 341 166 197 229 223 196 256 219 208 213 203 259 225 160 133 157 190 216 148 134 189 163 118 164 191 316 327 173 169 159 151 210 87 103 275 150 290 283 181 189 178 170 169
106 271 8 72 257 246 242 267 252 212 217 182 224 202 200 175 142 178 189 198 184 143 159 170 179 113 67 2 355 219 189 126 105 92 189 171 245 136 65 115 158 160 167 160 146
102 340 320 116 229 302 329 258 242 228 248 229 293 304 108 55 109 194 185 201 169 135 167 181 173 175 186 194 136 166 184 188 124 171 154 217 282 302 188 176 170 152 156 152 151
79 262 285 297 294 255 231 260 261 256 212 153 264 233 138 304 192 180 230 148 346 187 173 176 199 168 159 143 142 169 177 181 196 199 204 207 209 250 222 195 190 162 144 148 151
145 234 275 285 281 260 227 222 234 243 193 195 228 214 125 216 213 190 180 181 198 157 213 179 196 136 314 145 214 229 207 204 209 190 228 165 242 215 97 113 153 172 165 169 170
144 255 269 267 281 259 259 255 299 235 246 202 215 150 208 206 274 199 137 166 194 169 193 173 139 160 195 151 141 277 212 194 208 202 191 210 212 156 187 190 183 178 179 180 175